Wind_Speed
3 3 2 2 2 1 1 1 1 1 0 1 1 1 0 1 0 0 1 1 2 2 3 3 3 4 4 4 5 5 6 6 7 7 8 8 8 9 9 9 9 9 9
5 4 3 3 3 2 1 1 1 2 1 1 1 1 1 1 1 1 1 2 2 3 3 3 3 4 4 5 5 6 6 7 7 7 8 8 8 9 10 10 10 10 9
7 6 5 4 4 3 3 2 2 2 1 2 2 2 2 2 2 2 2 3 3 3 4 4 5 5 5 6 6 6 7 8 8 8 8 8 8 9 9 10 10 10 10
9 8 7 6 5 5 4 4 3 3 2 2 3 3 3 3 3 3 3 4 4 4 5 5 6 6 6 7 7 7 8 8 8 8 8 9 9 9 9 9 10 10 10
10 9 9 8 7 6 6 5 4 4 4 3 3 4 4 4 3 4 4 4 5 5 6 6 6 7 7 7 8 8 8 9 9 9 9 9 9 10 10 10 10 10 10
11 10 9 9 8 8 7 7 6 6 6 5 5 4 5 4 4 5 5 5 6 6 6 7 7 7 8 8 8 9 9 9 10 10 10 11 11 11 11 11 11 12 12
12 10 10 9 9 10 9 9 8 8 8 7 6 6 6 6 6 7 7 7 7 8 8 8 8 8 9 9 10 10 10 10 10 10 11 11 11 12 12 12 12 12 13
12 12 11 10 11 10 10 10 10 10 10 9 8 8 8 8 9 9 9 8 9 9 9 9 9 10 10 10 10 11 11 11 12 12 13 13 12 12 12 13 13 14 14
11 11 11 11 11 11 10 11 11 10 10 10 10 10 10 10 10 10 10 10 10 10 10 11 11 11 11 11 11 11 12 13 13 13 14 15 15 14 14 15 15 15 16
13 12 12 11 11 12 12 12 12 12 11 11 11 11 11 11 11 11 11 12 12 12 12 12 12 12 12 13 13 13 13 14 15 15 16 17 17 17 17 17 18 18 18
13 13 13 13 12 12 13 13 13 13 13 12 12 12 12 12 13 13 14 14 13 13 13 13 14 14 14 14 15 15 16 17 17 17 18 18 19 20 20 20 20 21 21
13 14 13 14 14 13 14 14 14 15 15 15 14 14 14 14 14 15 15 15 15 15 15 16 16 16 16 16 17 17 17 18 19 19 20 21 21 22 22 22 23 24 25
12 14 14 15 15 15 15 15 15 16 17 17 16 16 15 15 16 16 16 17 17 17 17 17 17 18 18 19 19 19 20 20 21 21 22 22 23 24 25 25 25 27 27
12 14 14 15 16 16 16 16 16 17 17 17 17 17 17 17 17 18 18 18 18 18 18 19 19 20 21 21 21 22 22 23 23 24 25 25 26 26 27 28 29 30 31
13 14 15 15 16 17 17 16 16 17 17 17 18 19 19 19 20 20 20 20 20 20 21 21 21 22 23 23 24 25 25 25 26 26 27 28 29 29 30 31 32 33 33
13 14 14 15 16 17 17 18 17 18 19 19 19 20 20 20 21 21 21 22 22 23 23 23 23 23 24 25 26 26 27 27 28 28 29 30 31 32 33 33 34 34 35
13 14 15 16 16 17 18 18 19 19 19 20 20 21 21 22 22 22 22 22 23 23 24 24 25 25 25 26 28 29 29 29 30 31 32 33 33 34 35 35 36 37 37
14 15 15 15 16 17 18 19 19 19 20 20 20 21 22 22 23 23 23 24 25 25 25 26 26 26 27 28 29 30 30 31 32 33 34 35 36 38 38 38 39 40 41
14 14 14 15 16 16 17 18 19 20 19 20 20 21 22 23 23 23 24 24 25 26 26 27 27 28 28 29 29 30 31 32 33 35 36 37 39 40 41 42 43 43 43
14 14 14 15 16 16 17 18 19 20 19 19 20 21 22 23 23 24 25 25 26 26 27 27 27 28 28 29 30 32 33 35 36 37 38 39 40 41 42 43 44 45 45
14 15 16 16 17 17 18 19 19 19 20 21 22 22 23 24 24 25 25 26 27 27 27 27 27 28 29 31 33 34 35 37 38 39 40 41 41 42 44 45 45 46 47
15 16 16 16 17 17 18 19 20 21 21 22 22 23 23 24 25 25 26 27 27 28 27 28 30 31 32 32 33 35 36 37 38 39 40 41 42 43 44 45 46 46 47
14 15 16 16 17 17 18 19 21 22 22 23 23 24 24 24 25 26 26 28 28 28 29 30 31 32 33 34 34 35 36 37 38 40 41 42 43 44 44 45 45 45 47
15 16 16 17 18 18 19 20 20 21 21 23 23 24 24 25 25 26 27 28 28 28 29 30 31 33 33 34 34 35 36 37 38 39 40 41 42 42 43 44 45 46 47
17 17 17 18 19 20 20 21 21 21 22 23 23 24 25 25 25 26 26 27 28 29 30 31 32 33 33 33 33 34 35 36 37 38 39 40 41 42 43 44 45 46 47
18 18 19 19 19 20 20 21 22 22 23 23 24 25 26 26 27 26 27 28 28 29 30 31 32 32 32 32 33 34 35 36 38 38 39 40 41 42 43 44 45 46 45
Wind_Direction
223 221 218 209 193 193 210 276 249 202 219 221 241 245 240 184 182 337 308 290 266 269 275 269 264 266 264 257 261 265 265 268 272 280 286 289 286 284 283 283 284 287 287
222 219 216 215 210 221 234 262 240 220 224 221 227 226 224 224 241 256 269 273 266 271 274 276 275 273 272 269 269 269 269 271 273 278 285 288 287 285 283 281 281 282 285
219 215 216 221 226 232 236 242 230 207 209 219 223 231 247 259 266 269 272 271 277 281 277 277 278 275 273 275 274 273 271 272 272 276 285 289 289 289 286 282 281 282 283
220 218 220 225 233 233 235 231 230 225 235 241 241 249 255 257 262 268 271 270 273 282 281 278 279 277 274 270 271 275 275 272 273 276 282 288 290 290 288 286 285 285 286
222 220 225 230 236 237 233 232 235 237 245 256 262 258 260 260 262 264 269 270 274 280 281 282 280 278 277 272 269 271 274 274 275 277 281 287 290 289 288 287 286 286 284
224 224 229 233 237 235 234 236 240 243 247 254 263 263 261 262 266 271 276 274 275 278 280 280 277 276 275 272 273 271 273 276 276 279 281 283 286 288 286 285 285 284 284
228 227 229 234 235 235 237 239 243 247 249 250 259 265 264 263 266 270 275 274 274 275 278 279 277 277 275 275 275 273 272 274 276 278 280 282 284 285 284 284 284 283 284
231 231 235 238 239 241 241 242 246 251 254 256 259 264 266 265 267 270 273 274 273 274 274 274 274 278 276 277 278 273 269 273 277 278 278 281 283 282 281 282 283 283 282
235 234 236 241 243 245 245 245 247 251 255 256 258 262 265 267 270 273 274 275 276 274 273 274 276 278 278 275 277 276 272 273 277 278 277 277 279 279 280 281 281 283 284
234 235 238 245 246 245 247 249 250 251 255 257 259 261 264 266 268 271 273 275 276 275 274 275 277 279 278 277 278 277 275 276 277 278 278 278 277 278 280 282 282 281 282
233 235 237 247 249 249 249 249 252 254 256 259 260 261 263 267 269 270 272 273 275 274 275 276 274 276 278 278 279 279 279 280 280 280 280 279 279 279 280 281 281 282 281
238 236 242 245 247 249 249 249 251 255 256 258 260 260 262 264 267 269 271 273 273 272 274 274 273 274 276 276 278 280 281 281 281 281 281 280 280 280 279 280 281 281 280
243 240 243 246 245 246 250 252 255 258 258 259 260 260 263 264 265 268 270 271 273 274 274 274 274 275 276 276 278 280 280 281 282 282 281 281 280 279 279 279 280 281 280
250 245 244 246 245 247 251 256 258 259 260 260 261 263 265 266 266 267 269 270 271 272 273 274 274 274 274 275 277 279 280 281 282 281 280 281 281 280 280 280 281 279 278
256 256 251 250 252 254 254 257 260 261 261 261 262 263 265 267 267 266 267 267 270 271 272 273 275 275 275 276 278 279 279 279 280 281 281 281 281 281 281 281 282 281 280
258 260 255 255 256 257 258 258 259 261 261 261 261 262 265 268 268 268 266 267 271 273 273 273 274 275 276 278 279 279 279 279 280 281 281 282 282 281 281 282 283 283 281
261 261 260 258 259 259 259 262 263 263 264 264 265 265 265 267 268 270 270 271 272 274 274 273 272 272 275 278 279 280 281 280 281 282 281 282 283 283 282 282 284 283 283
264 264 267 264 263 261 261 265 266 265 266 266 268 268 266 266 266 267 269 271 273 275 275 273 273 274 276 278 280 281 282 282 282 282 281 281 283 284 284 284 284 284 283
269 271 270 268 267 266 264 265 265 267 269 270 272 272 271 270 269 268 270 272 275 276 276 275 275 276 279 280 281 282 282 283 284 284 283 283 284 285 286 286 284 285 286
268 269 272 273 273 269 267 269 268 268 270 275 276 276 274 273 271 270 272 274 276 277 277 277 279 279 282 284 283 284 284 285 286 287 286 286 287 288 287 288 287 286 286
271 271 272 274 276 273 269 271 273 272 275 277 278 278 277 275 274 274 275 275 275 275 276 277 280 283 284 285 284 285 285 286 286 287 287 288 288 289 289 289 289 288 288
274 273 273 276 276 275 273 272 274 276 279 280 280 281 280 278 277 276 277 276 277 277 278 280 283 284 286 287 287 287 288 288 288 288 288 289 291 293 293 292 292 291 290
279 277 278 278 278 277 276 276 279 280 281 282 281 282 281 280 278 277 278 281 281 281 281 283 285 286 287 288 287 288 289 289 290 290 290 291 293 295 294 293 293 293 293
282 280 280 281 281 280 280 281 282 283 284 284 282 282 283 283 282 281 279 279 279 280 283 285 288 289 289 289 288 288 289 290 291 292 293 294 294 295 296 296 296 297 297
282 280 281 282 282 282 282 282 282 284 283 283 283 283 284 284 283 284 284 283 284 283 285 287 289 290 292 291 290 291 292 292 293 294 295 297 297 297 298 299 299 299 299
286 283 283 282 283 283 283 282 282 283 283 284 284 286 288 286 285 285 285 285 285 286 288 290 291 293 294 293 292 293 295 295 296 297 298 299 298 299 299 300 301 301 302
Height
5895 5896 5897 5898 5899 5900 5900 5901 5901 5901 5902 5902 5902 5903 5903 5903 5904 5904 5904 5904 5904 5904 5905 5905 5905 5905 5905 5905 5905 5905 5906 5906 5906 5906 5906 5906 5906 5906 5906 5906 5906 5905 5905
5894 5895 5896 5897 5898 5899 5900 5900 5900 5901 5901 5902 5902 5903 5903 5903 5903 5904 5904 5904 5904 5904 5904 5904 5904 5904 5904 5904 5904 5904 5905 5905 5905 5905 5905 5905 5904 5904 5904 5904 5904 5904 5904
5893 5895 5896 5897 5898 5898 5899 5900 5900 5901 5901 5902 5902 5902 5902 5902 5903 5903 5903 5903 5903 5903 5903 5904 5904 5904 5904 5904 5904 5903 5904 5904 5904 5904 5904 5903 5903 5903 5902 5902 5902 5902 5902
5892 5893 5895 5896 5897 5898 5898 5899 5900 5900 5901 5901 5901 5901 5902 5902 5902 5902 5902 5902 5903 5903 5903 5903 5903 5903 5903 5903 5903 5902 5902 5903 5902 5902 5902 5902 5901 5901 5901 5901 5900 5900 5900
5891 5892 5893 5895 5896 5897 5897 5898 5899 5900 5900 5900 5901 5901 5901 5901 5901 5901 5901 5901 5902 5902 5902 5902 5902 5902 5901 5901 5901 5901 5901 5901 5901 5901 5901 5900 5900 5899 5899 5899 5899 5898 5898
5889 5890 5892 5893 5894 5895 5896 5897 5898 5898 5899 5899 5899 5900 5900 5900 5900 5900 5900 5900 5900 5900 5900 5900 5900 5900 5900 5900 5900 5900 5899 5899 5899 5899 5899 5898 5898 5897 5897 5897 5896 5896 5895
5887 5889 5890 5891 5892 5894 5895 5895 5896 5897 5897 5898 5898 5898 5898 5899 5899 5899 5899 5899 5899 5899 5899 5899 5898 5898 5898 5898 5898 5898 5898 5897 5897 5897 5896 5896 5896 5895 5895 5894 5894 5894 5893
5885 5887 5888 5889 5891 5892 5893 5894 5894 5895 5895 5896 5897 5897 5897 5898 5897 5897 5897 5897 5897 5897 5897 5897 5896 5896 5896 5896 5896 5895 5895 5895 5895 5894 5894 5893 5893 5893 5892 5892 5891 5890 5890
5884 5885 5887 5888 5889 5890 5891 5891 5892 5893 5893 5894 5894 5895 5895 5895 5895 5895 5895 5895 5895 5895 5894 5894 5894 5894 5894 5893 5893 5893 5893 5892 5892 5892 5891 5890 5890 5890 5889 5889 5888 5887 5887
5881 5883 5884 5885 5886 5887 5888 5889 5890 5891 5891 5892 5892 5892 5893 5893 5893 5893 5893 5893 5892 5892 5892 5892 5892 5891 5891 5891 5890 5890 5890 5890 5889 5888 5888 5887 5887 5886 5886 5885 5885 5884 5883
5879 5880 5881 5883 5884 5885 5886 5887 5888 5888 5889 5889 5890 5890 5890 5890 5890 5890 5890 5890 5890 5889 5889 5889 5889 5888 5888 5888 5887 5887 5887 5886 5885 5885 5884 5883 5883 5882 5882 5881 5880 5879 5878
5876 5877 5878 5880 5881 5882 5883 5884 5885 5886 5886 5886 5887 5887 5887 5887 5887 5887 5887 5887 5887 5886 5886 5886 5885 5885 5885 5884 5884 5883 5883 5882 5881 5880 5880 5879 5878 5878 5877 5876 5875 5874 5873
5873 5874 5876 5877 5878 5879 5879 5880 5881 5882 5883 5883 5883 5883 5884 5884 5883 5883 5883 5883 5883 5883 5882 5882 5882 5881 5881 5880 5880 5879 5878 5878 5877 5876 5875 5874 5873 5872 5871 5870 5869 5868 5867
5871 5872 5873 5873 5874 5875 5876 5877 5878 5878 5879 5879 5879 5880 5880 5880 5880 5879 5879 5879 5878 5879 5878 5878 5877 5877 5876 5876 5875 5874 5873 5873 5872 5871 5869 5868 5867 5866 5865 5864 5862 5861 5860
5868 5869 5869 5870 5871 5871 5872 5873 5874 5874 5874 5875 5875 5875 5875 5875 5875 5875 5875 5874 5875 5874 5874 5873 5872 5872 5871 5870 5869 5869 5867 5867 5866 5864 5863 5862 5860 5859 5857 5856 5855 5853 5852
5865 5866 5866 5866 5867 5868 5868 5869 5869 5870 5870 5870 5870 5870 5870 5870 5870 5870 5870 5869 5869 5869 5868 5868 5867 5866 5865 5864 5863 5862 5861 5860 5859 5858 5856 5854 5853 5851 5850 5848 5847 5845 5843
5862 5862 5862 5863 5863 5863 5864 5864 5864 5865 5865 5865 5865 5865 5865 5865 5865 5865 5864 5864 5864 5863 5863 5862 5861 5860 5859 5858 5857 5856 5854 5853 5852 5850 5849 5847 5845 5843 5842 5840 5838 5836 5834
5859 5859 5859 5859 5859 5859 5859 5860 5860 5860 5860 5860 5860 5860 5860 5859 5859 5859 5859 5858 5858 5857 5857 5856 5855 5854 5853 5852 5850 5849 5847 5846 5844 5842 5840 5839 5837 5835 5832 5830 5828 5826 5823
5856 5856 5855 5855 5855 5855 5855 5855 5855 5855 5855 5855 5855 5854 5854 5853 5853 5853 5853 5852 5852 5851 5850 5849 5848 5847 5846 5845 5843 5842 5840 5838 5836 5834 5832 5829 5827 5825 5823 5820 5817 5815 5812
5852 5852 5852 5852 5852 5851 5851 5851 5850 5850 5850 5850 5850 5849 5848 5848 5847 5847 5847 5846 5846 5845 5844 5843 5841 5840 5839 5837 5836 5834 5832 5829 5827 5825 5822 5820 5817 5814 5812 5809 5806 5803 5800
5849 5848 5848 5848 5847 5847 5847 5846 5846 5845 5845 5844 5844 5843 5843 5842 5842 5841 5841 5840 5839 5838 5837 5835 5834 5833 5831 5830 5828 5825 5823 5821 5818 5815 5812 5810 5807 5804 5801 5797 5794 5791 5788
5845 5844 5844 5844 5843 5842 5842 5841 5841 5840 5840 5839 5838 5838 5837 5836 5835 5835 5834 5833 5832 5831 5829 5828 5827 5825 5823 5821 5819 5816 5814 5812 5808 5805 5802 5799 5796 5792 5789 5785 5781 5778 5774
5840 5840 5840 5840 5839 5838 5837 5837 5836 5835 5834 5834 5833 5832 5831 5830 5829 5828 5827 5826 5824 5823 5822 5821 5819 5817 5815 5812 5810 5807 5805 5802 5798 5795 5792 5789 5785 5781 5777 5773 5770 5765 5762
5837 5836 5836 5835 5834 5834 5833 5832 5831 5830 5829 5828 5827 5826 5824 5823 5822 5821 5820 5818 5817 5816 5814 5813 5811 5809 5806 5804 5801 5798 5795 5792 5789 5786 5782 5779 5775 5770 5766 5762 5758 5753 5749
5833 5832 5831 5830 5830 5829 5828 5827 5826 5825 5824 5822 5821 5820 5818 5816 5815 5814 5813 5812 5810 5809 5807 5805 5803 5801 5798 5795 5792 5790 5786 5783 5780 5776 5772 5769 5764 5760 5755 5751 5746 5742 5737
5828 5827 5826 5825 5824 5823 5822 5821 5820 5819 5818 5816 5815 5813 5812 5810 5809 5807 5806 5804 5803 5801 5799 5797 5794 5792 5789 5786 5783 5781 5777 5774 5770 5766 5762 5758 5754 5749 5745 5740 5735 5730 5725